Regional Weather Roundup
Issued by NWS

Home | Current Version | Previous Version | Graphics & Text | Print | Product List | Glossary On
Versions: 1 2 3 4 5 6 7 8 9 10 11 12 13 14 15 16 17 18 19 20 21 22 23 24 25 26 27 28 29 30 31 32 33 34 35 36 37 38 39 40 41 42 43 44 45 46 47 48 49 50
000
ASUS43 KMPX 242201
RWRMN
WEATHER ROUNDUP FOR MINNESOTA
NATIONAL WEATHER SERVICE TWIN CITIES/CHANHASSEN MN
500 PM CDT MON JUL 24 2017


NOTE: "FAIR" INDICATES FEW OR NO CLOUDS BELOW 12,000 FEET WITH NO
SIGNIFICANT WEATHER AND/OR OBSTRUCTIONS TO VISIBILITY. N/A MEANS
CURRENT SKY AND/OR WEATHER CONDITIONS ARE NOT AVAILABLE.

MNZ060>063-068>070-242300-
   Twin Cities Metro

CITY           SKY/WX    TMP DP  RH WIND       PRES   REMARKS
TWIN CITIES    PTSUNNY   78  60  53 SE13      30.03S
ST PAUL        MOSUNNY   76  61  59 SE9       30.03S
CRYSTAL        PTSUNNY   77  57  50 SE7       30.01S
BLAINE         MOSUNNY   81  61  50 SE8       30.02F
LAKEVILLE      CLOUDY    73  61  64 SE6       30.04R
EDEN PRAIRIE   MOSUNNY   76  60  57 S13       30.02S
SOUTH ST PAUL  MOSUNNY   77  58  52 SE6       30.03S
LAKE ELMO      FAIR      77  61  57 E7        30.04F
$$
MNZ001>005-007-008-013>017-022>024-027-028-242300-
   Northwest Minnesota

CITY           SKY/WX    TMP DP  RH WIND       PRES   REMARKS
BEMIDJI        PTSUNNY   75  58  55 SE12      29.98S
HALLOCK        SUNNY     79  64  61 S21G28    29.86S
ROSEAU         SUNNY     81  66  61 S16G22    29.91F
WARROAD        MOSUNNY   81  66  61 S12       29.92F
CROOKSTON      MOSUNNY   81  63  54 S17       29.91F
FOSSTON        MOSUNNY   77  61  57 S13       29.96F
DETROIT LAKES  CLOUDY    73  61  64 S10       29.98S
MOORHEAD       CLOUDY    75  63  64 SE14      29.92F
PARK RAPIDS    MOSUNNY   77  59  53 SE18      29.99S
MAHNOMEN       FAIR      74  62  65 S7        29.95F
$$
MNZ006-009>011-018-025>026-242300-
   North Central Minnesota

CITY           SKY/WX    TMP DP  RH WIND       PRES   REMARKS
BAUDETTE       SUNNY     80  57  45 S12G21    29.94S
FLAG ISLAND    SUNNY     75  64  69 S13       29.91S
INTL FALLS     SUNNY     78  55  44 S8        29.97F
WASKISH        PTSUNNY   79  59  50 S3        29.97S
BIG FORK       SUNNY     77  55  47 SE6       30.00F
LONGVILLE      CLOUDY    73  57  56 SE9       30.01S
GRAND RAPIDS   SUNNY     74  59  59 S13       30.03S
CRANE LAKE     SUNNY     77  52  41 S6        30.02F
ORR            SUNNY     77  48  36 S9        29.99S
COOK           SUNNY     75  52  43 S7        30.02S
WALKER         FAIR      74  55  51 S9        30.00S
$$
MNZ012-019>021-037-242300-
   Northeast Minnesota

CITY           SKY/WX    TMP DP  RH WIND       PRES   REMARKS
DULUTH         SUNNY     72  57  59 SE9       30.05S
ELY            SUNNY     75  46  35 SW9       30.04S
HIBBING        SUNNY     75  52  44 VRB7      30.03S
EVELETH        SUNNY     78  38  23 SE10      30.04S
DULUTH HARBOR  SUNNY     66  61  82 NE5       30.04F
TWO HARBORS    SUNNY     75  59  57 E7        30.03F
SILVER BAY     SUNNY     73  54  49 E6        30.04F
GRAND MARAIS     N/A     58  56  93 SW7       30.06
G MARAIS ARPRT SUNNY     70  46  43 S8        30.10S
$$
MNZ029>031-032-039>041-046>048-054>057-064-242300-
   West Central Minnesota

CITY           SKY/WX    TMP DP  RH WIND       PRES   REMARKS
FERGUS FALLS   CLOUDY    73  63  68 S12       29.95S
WHEATON        PTSUNNY   75  61  60 SE13G18   29.96S
MORRIS         PTSUNNY   79  61  53 S13       29.99R
ALEXANDRIA     PTSUNNY   75  60  59 SE12      30.00F
ELBOW LAKE     FAIR      73  64  71 SE12      29.99R
WADENA         CLOUDY    73  61  64 SE10      29.99F
GLENWOOD       PTSUNNY   75  61  60 SE14      30.00F
APPLETON       MOSUNNY   79  61  53 SE8       29.97R
BENSON         CLOUDY    79  61  53 S10G18    29.99S
ORTONVILLE     MOSUNNY   77  63  61 SE8       29.97R
MADISON        SUNNY     81  64  57 SE10      29.97R
WILLMAR        FAIR      79  63  57 SE9       30.01S
$$
MNZ033>034-036-042>043-049>051-058-059-242300-
   Central Minnesota

CITY           SKY/WX    TMP DP  RH WIND       PRES   REMARKS
ST CLOUD       CLOUDY    77  61  57 S10       30.01F
SAUK CENTRE    MOCLDY    75  62  62 SE8       30.00F
PAYNESVILLE    MOSUNNY   77  61  56 S9        30.01F
AITKIN         PTSUNNY   73  61  64 S12       30.01F
PINE RIVER     MOSUNNY   75  61  60 S9G16     30.04S
BRAINERD       MOSUNNY   75  60  59 S9        30.02S
STAPLES        CLOUDY    72  57  60 SE8       30.01S
LONG PRAIRIE   PTSUNNY   73  61  64 E8        30.02S
LITTLE FALLS   CLOUDY    73  59  60 SE7       30.03R
LITCHFIELD     MOSUNNY   77  63  61 SE7       30.03R
BUFFALO        PTSUNNY   76  59  55 SE9       30.03S
MAPLE LAKE     PTSUNNY   78  64  61 S7        30.03S
HUTCHINSON     MOSUNNY   77  64  63 S7        30.04R
$$
MNZ037-044-045-052-053-242300-
   East Central Minnesota

CITY           SKY/WX    TMP DP  RH WIND       PRES   REMARKS
PRINCETON      CLOUDY    79  61  53 SE10      30.02F
MORA           CLOUDY    73  55  53 SE6       30.04F
CAMBRIDGE      SUNNY     79  61  53 SE6       30.01F
RUSH CITY      MOSUNNY   75  59  57 S9        30.03S HAZE
MOOSE LAKE     CLOUDY    75  55  50 CALM      30.01F
HINCKLEY       FAIR      77  59  53 SE6       30.02F
CLOQUET        SUNNY     73  55  53 E7        30.04S
MCGREGOR       CLOUDY    75  59  57 S12       30.03F
$$
MNZ071>073-080-081-089-090-097-098-242300-
   Southwest Minnesota

CITY           SKY/WX    TMP DP  RH WIND       PRES   REMARKS
MONTEVIDEO     MOSUNNY   82  64  54 S12       29.98S
GRANITE FALLS  MOSUNNY   81  64  57 SE10      29.99F
CANBY          MOSUNNY   82  64  52 E9        29.97S
MARSHALL       PTSUNNY   79  65  62 S16       29.97F
REDWOOD FALLS  MOSUNNY   78  62  57 SE13      29.99S
OLIVIA         MOSUNNY   77  61  57 SE10      29.99F
PIPESTONE      MOSUNNY   79  63  57 S10       29.97F
WINDOM         SUNNY     77  63  61 SE9       30.00S
WORTHINGTON    MOSUNNY   79  64  60 SE14      30.00S
JACKSON        MOSUNNY   79  61  53 CALM      30.02S
TRACY          MOSUNNY   79  66  64 SE12G17   29.99S
SLAYTON        MOSUNNY   78  63  60 SE13      30.00F
$$
MNZ065>067-074>077-082>085-091>093-242300-
   South Central Minnesota

CITY           SKY/WX    TMP DP  RH WIND       PRES   REMARKS
MANKATO        PTSUNNY   74  62  66 SE9       30.03S
NEW ULM        MOSUNNY   75  63  64 SE8       30.01S
ST JAMES       MOSUNNY   77  64  65 SE10      30.02S
FAIRMONT       MOSUNNY   77  63  61 SE12      30.02S
GLENCOE        PTSUNNY   77  64  65 SE8       30.02S
FARIBAULT      MOSUNNY   75  61  60 SE10      30.04F
OWATONNA       PTSUNNY   75  63  64 SE9       30.04F
WASECA         MOSUNNY   73  61  64 SE9       30.05S
ALBERT LEA     MOSUNNY   75  61  60 SE12      30.04S
$$
MNZ078>079-086>088-094>096-242300-
   Southeast Minnesota

CITY           SKY/WX    TMP DP  RH WIND       PRES   REMARKS
ROCHESTER      MOSUNNY   71  61  70 SE7       30.06S
RED WING       CLOUDY    79  55  44 SE8       30.03S
STANTON        CLOUDY    76  60  57 S7        30.03S
DODGE CENTER   MOSUNNY   73  61  64 SE8       30.06S
WINONA         CLOUDY    73  59  60 SE3       30.06S
AUSTIN         MOSUNNY   73  61  64 SE7       30.04F
PRESTON        CLOUDY    72  59  62 S9        30.07S
$$
ABBREVIATIONS USED IN REMARKS
   TC - TEMPERATURES IN CELSIUS
  WCI - WIND CHILL INDEX
   HX - HEAT INDEX
  VSB - VISIBILITY
$$



USA.gov is the U.S. government's official web portal to all federal, state and local government web resources and services.